Year,Month,Day,Hour,Minute,Value (Times are PST for temperature in C)
2022,01,01,00,00,-8.50
2022,01,01,00,01,-8.40
2022,01,01,00,02,-8.40
2022,01,01,00,03,-8.40
2022,01,01,00,04,-8.40
2022,01,01,00,05,-8.40
2022,01,01,00,06,-8.30
2022,01,01,00,07,-8.30
2022,01,01,00,08,-8.30
2022,01,01,00,09,-8.30
2022,01,01,00,10,-8.20
2022,01,01,00,11,-8.20
2022,01,01,00,12,-8.10
2022,01,01,00,13,-8.10
2022,01,01,00,14,-8.10
2022,01,01,00,15,-8.10
2022,01,01,00,16,-8.10
2022,01,01,00,17,-8.10
2022,01,01,00,18,-8.10
2022,01,01,00,19,-8.00
2022,01,01,00,20,-8.00
2022,01,01,00,21,-8.00
2022,01,01,00,22,-8.00
2022,01,01,00,23,-8.00
2022,01,01,00,24,-7.90
2022,01,01,00,25,-7.90
2022,01,01,00,26,-7.90
2022,01,01,00,27,-7.90
2022,01,01,00,28,-7.90
2022,01,01,00,29,-7.90
2022,01,01,00,30,-7.90
2022,01,01,00,31,-7.80
2022,01,01,00,32,-7.80
2022,01,01,00,33,-7.80
2022,01,01,00,34,-7.80
2022,01,01,00,35,-7.80
2022,01,01,00,36,-7.80
2022,01,01,00,37,-7.80
2022,01,01,00,38,-7.80
2022,01,01,00,39,-7.70
2022,01,01,00,40,-7.70
2022,01,01,00,41,-7.70
2022,01,01,00,42,-7.70
2022,01,01,00,43,-7.70
2022,01,01,00,44,-7.70
2022,01,01,00,45,-7.70
2022,01,01,00,46,-7.60
2022,01,01,00,47,-7.60
2022,01,01,00,48,-7.60
2022,01,01,00,49,-7.60
2022,01,01,00,50,-7.60
2022,01,01,00,51,-7.60
2022,01,01,00,52,-7.60
2022,01,01,00,53,-7.60
2022,01,01,00,54,-7.50
2022,01,01,00,55,-7.50
2022,01,01,00,56,-7.50
2022,01,01,00,57,-7.50
2022,01,01,00,58,-7.40
2022,01,01,00,59,-7.40
2022,01,01,01,00,-7.40
2022,01,01,01,01,-7.40
2022,01,01,01,02,-7.40
2022,01,01,01,03,-7.40
2022,01,01,01,04,-7.30
2022,01,01,01,05,-7.30
2022,01,01,01,06,-7.30
2022,01,01,01,07,-7.30
2022,01,01,01,08,-7.30
2022,01,01,01,09,-7.20
2022,01,01,01,10,-7.20
2022,01,01,01,11,-7.20
2022,01,01,01,12,-7.20
2022,01,01,01,13,-7.10
2022,01,01,01,14,-7.10
2022,01,01,01,15,-7.10
2022,01,01,01,16,-7.10
2022,01,01,01,17,-7.10
2022,01,01,01,18,-7.10
2022,01,01,01,19,-7.10
2022,01,01,01,20,-7.10
2022,01,01,01,21,-7.10
2022,01,01,01,22,-7.00
2022,01,01,01,23,-7.00
2022,01,01,01,24,-7.00
2022,01,01,01,25,-7.00
2022,01,01,01,26,-6.90
2022,01,01,01,27,-6.90
2022,01,01,01,28,-6.90
2022,01,01,01,29,-6.90
2022,01,01,01,30,-6.90
2022,01,01,01,31,-6.80
2022,01,01,01,32,-6.80
2022,01,01,01,33,-6.80
2022,01,01,01,34,-6.80
2022,01,01,01,35,-6.80
2022,01,01,01,36,-6.80
2022,01,01,01,37,-6.70
2022,01,01,01,38,-6.70
2022,01,01,01,39,-6.70
2022,01,01,01,40,-6.70
2022,01,01,01,41,-6.70
2022,01,01,01,42,-6.70
2022,01,01,01,43,-6.60
2022,01,01,01,44,-6.60
2022,01,01,01,45,-6.60
2022,01,01,01,46,-6.60
2022,01,01,01,47,-6.60
2022,01,01,01,48,-6.60
2022,01,01,01,49,-6.50
2022,01,01,01,50,-6.50
2022,01,01,01,51,-6.50
2022,01,01,01,52,-6.40
2022,01,01,01,53,-6.40
2022,01,01,01,54,-6.40
2022,01,01,01,55,-6.40
2022,01,01,01,56,-6.30
2022,01,01,01,57,-6.30
2022,01,01,01,58,-6.30
2022,01,01,01,59,-6.30
2022,01,01,02,00,-6.30
2022,01,01,02,01,-6.30
2022,01,01,02,02,-6.30
2022,01,01,02,03,-6.30
2022,01,01,02,04,-6.30
2022,01,01,02,05,-6.30
2022,01,01,02,06,-6.30
2022,01,01,02,07,-6.20
2022,01,01,02,08,-6.20
2022,01,01,02,09,-6.20
2022,01,01,02,10,-6.20
2022,01,01,02,11,-6.20
2022,01,01,02,12,-6.20
2022,01,01,02,13,-6.20
2022,01,01,02,14,-6.20
2022,01,01,02,15,-6.10
2022,01,01,02,16,-6.10
2022,01,01,02,17,-6.10
2022,01,01,02,18,-6.10
2022,01,01,02,19,-6.00
2022,01,01,02,20,-6.00
2022,01,01,02,21,-6.00
2022,01,01,02,22,-6.00
2022,01,01,02,23,-6.00
2022,01,01,02,24,-5.90
2022,01,01,02,25,-5.90
2022,01,01,02,26,-5.90
2022,01,01,02,27,-5.90
2022,01,01,02,28,-5.90
2022,01,01,02,29,-5.90
2022,01,01,02,30,-5.90
2022,01,01,02,31,-5.80
2022,01,01,02,32,-5.80
2022,01,01,02,33,-5.80
2022,01,01,02,34,-5.80
2022,01,01,02,35,-5.80
2022,01,01,02,36,-5.80
2022,01,01,02,37,-5.80
2022,01,01,02,38,-5.80
2022,01,01,02,39,-5.70
2022,01,01,02,40,-5.70
2022,01,01,02,41,-5.70
2022,01,01,02,42,-5.70
2022,01,01,02,43,-5.70
2022,01,01,02,44,-5.70
2022,01,01,02,45,-5.60
2022,01,01,02,46,-5.60
2022,01,01,02,47,-5.60
2022,01,01,02,48,-5.60
2022,01,01,02,49,-5.60
2022,01,01,02,50,-5.60
2022,01,01,02,51,-5.50
2022,01,01,02,52,-5.50
2022,01,01,02,53,-5.50
2022,01,01,02,54,-5.50
2022,01,01,02,55,-5.50
2022,01,01,02,56,-5.50
2022,01,01,02,57,-5.50
2022,01,01,02,58,-5.50
2022,01,01,02,59,-5.50
2022,01,01,03,00,-5.40
2022,01,01,03,01,-5.40
2022,01,01,03,02,-5.40
2022,01,01,03,03,-5.40
2022,01,01,03,04,-5.40
2022,01,01,03,05,-5.40
2022,01,01,03,06,-5.40
2022,01,01,03,07,-5.40
2022,01,01,03,08,-5.30
2022,01,01,03,09,-5.30
2022,01,01,03,10,-5.30
2022,01,01,03,11,-5.30
2022,01,01,03,12,-5.30
2022,01,01,03,13,-5.30
2022,01,01,03,14,-5.30
2022,01,01,03,15,-5.30
2022,01,01,03,16,-5.30
2022,01,01,03,17,-5.30
2022,01,01,03,18,-5.30
2022,01,01,03,19,-5.30
2022,01,01,03,20,-5.30
2022,01,01,03,21,-5.30
2022,01,01,12,13,-0.30
2022,01,01,12,14,-0.30
2022,01,01,12,15,-0.30
2022,01,01,12,16,-0.20
2022,01,01,12,17,-0.20
2022,01,01,12,18,-0.20
2022,01,01,12,19,-0.20
2022,01,01,12,20,-0.20
2022,01,01,12,21,-0.20
2022,01,01,12,22,-0.20
2022,01,01,12,23,-0.20
2022,01,01,12,24,-0.20
2022,01,01,12,25,-0.20
2022,01,01,12,26,-0.20
2022,01,01,12,27,-0.20
2022,01,01,12,28,-0.20
2022,01,01,12,29,-0.20
2022,01,01,12,30,-0.20
2022,01,01,12,31,-0.20
2022,01,01,12,32,-0.20
2022,01,01,12,33,-0.20
2022,01,01,12,34,-0.10
2022,01,01,12,35,-0.10
2022,01,01,12,36,-0.10
2022,01,01,12,37,-0.10
2022,01,01,12,38,-0.10
2022,01,01,12,39,-0.10
2022,01,01,12,40,-0.10
2022,01,01,12,41,-0.10
2022,01,01,12,42,0.00
2022,01,01,12,43,0.00
2022,01,01,12,44,0.00
2022,01,01,12,45,0.00
2022,01,01,12,46,0.00
2022,01,01,12,47,0.00
2022,01,01,12,48,0.00
2022,01,01,12,49,0.10
2022,01,01,12,50,0.10
2022,01,01,12,51,0.10
2022,01,01,12,52,0.10
2022,01,01,12,53,0.10
2022,01,01,12,54,0.10
2022,01,01,12,55,0.10
2022,01,01,12,56,0.10
2022,01,01,12,57,0.10
2022,01,01,12,58,0.10
2022,01,01,12,59,0.10
2022,01,01,13,00,0.10
2022,01,01,13,01,0.10
2022,01,01,13,02,0.10
2022,01,01,13,03,0.10
2022,01,01,13,04,0.10
2022,01,01,13,05,0.10
2022,01,01,13,06,0.10
2022,01,01,13,07,0.10
2022,01,01,13,08,0.10
2022,01,01,13,09,0.10
2022,01,01,13,10,0.10
2022,01,01,13,11,0.10
2022,01,01,13,12,0.10
2022,01,01,13,13,0.10
2022,01,01,13,14,0.10
2022,01,01,13,15,0.10
2022,01,01,13,16,0.10
2022,01,01,13,17,0.10
2022,01,01,13,18,0.10
2022,01,01,13,19,0.10
2022,01,01,13,20,0.10
2022,01,01,13,21,0.10
2022,01,01,13,22,0.10
2022,01,01,13,23,0.10
2022,01,01,13,24,0.10
2022,01,01,13,25,0.10
2022,01,01,13,26,0.10
2022,01,01,13,27,0.10
2022,01,01,13,28,0.10
2022,01,01,13,29,0.10
2022,01,01,13,30,0.10
2022,01,01,13,31,0.10
2022,01,01,13,32,0.10
2022,01,01,13,33,0.10
2022,01,01,13,34,0.10
2022,01,01,13,35,0.10
2022,01,01,13,36,0.10
2022,01,01,13,37,0.10
2022,01,01,13,38,0.10
2022,01,01,13,39,0.20
2022,01,01,13,40,0.20
2022,01,01,13,41,0.20
2022,01,01,13,42,0.20
2022,01,01,13,43,0.20
2022,01,01,13,44,0.20
2022,01,01,13,45,0.20
2022,01,01,13,46,0.20
2022,01,01,13,47,0.20
2022,01,01,13,48,0.20
2022,01,01,13,49,0.20
2022,01,01,13,50,0.20
2022,01,01,13,51,0.20
2022,01,01,13,52,0.20
2022,01,01,13,53,0.20
2022,01,01,13,54,0.20
2022,01,01,13,55,0.20
2022,01,01,13,56,0.20
2022,01,01,13,57,0.20
2022,01,01,13,58,0.20
2022,01,01,13,59,0.20
2022,01,01,14,00,0.20
2022,01,01,14,01,0.20
2022,01,01,14,02,0.20
2022,01,01,14,03,0.20
2022,01,01,14,04,0.10
2022,01,01,14,05,0.10
2022,01,01,14,06,0.10
2022,01,01,14,07,0.10
2022,01,01,14,08,0.10
2022,01,01,14,09,0.10
2022,01,01,14,10,0.10
2022,01,01,14,11,0.10
2022,01,01,14,12,0.10
2022,01,01,14,13,0.00
2022,01,01,14,14,0.00
2022,01,01,14,15,0.00
2022,01,01,14,16,0.00
2022,01,01,14,17,0.00
2022,01,01,14,18,0.00
2022,01,01,14,19,0.10
2022,01,01,14,20,0.10
2022,01,01,14,21,0.10
2022,01,01,14,22,0.10
2022,01,01,14,23,0.00
2022,01,01,14,24,0.10
2022,01,01,14,25,0.10
2022,01,01,14,26,0.10
2022,01,01,14,27,0.10
2022,01,01,14,28,0.10
2022,01,01,14,29,0.10
2022,01,01,14,30,0.10
2022,01,01,14,31,0.10
2022,01,01,14,32,0.10
2022,01,01,14,33,0.10
2022,01,01,14,34,0.10
2022,01,01,14,35,0.10
2022,01,01,14,36,0.10
2022,01,01,14,37,0.10
2022,01,01,14,38,0.10
2022,01,01,14,39,0.10
2022,01,01,14,40,0.10
2022,01,01,14,41,0.10
2022,01,01,14,42,0.10
2022,01,01,14,43,0.10
2022,01,01,14,44,0.10
2022,01,01,14,45,0.10
2022,01,01,14,46,0.10
2022,01,01,14,47,0.10
2022,01,01,14,48,0.10
2022,01,01,14,49,0.10
2022,01,01,14,50,0.10
2022,01,01,14,51,0.10
2022,01,01,14,52,0.10
2022,01,01,14,53,0.10
2022,01,01,14,54,0.10
2022,01,01,14,55,0.10
2022,01,01,14,56,0.10
2022,01,01,14,57,0.10
2022,01,01,14,58,0.10
2022,01,01,14,59,0.10
2022,01,01,15,00,0.10
2022,01,01,15,01,0.10
2022,01,01,15,02,0.20
2022,01,01,15,03,0.10
2022,01,01,15,04,0.10
2022,01,01,15,05,0.10
2022,01,01,15,06,0.10
2022,01,01,15,07,0.10
2022,01,01,15,08,0.10
2022,01,01,15,09,0.10
2022,01,01,15,10,0.10
2022,01,01,15,11,0.20
2022,01,01,15,12,0.20
2022,01,01,15,13,0.20
2022,01,01,15,14,0.20
2022,01,01,15,15,0.20
2022,01,01,15,16,0.20
2022,01,01,15,17,0.20
2022,01,01,15,18,0.20
2022,01,01,15,19,0.20
2022,01,01,15,20,0.20
2022,01,01,15,21,0.20
2022,01,01,15,22,0.20
2022,01,01,15,23,0.20
2022,01,01,15,24,0.20
2022,01,01,15,25,0.20
2022,01,01,15,26,0.20
2022,01,01,15,27,0.20
2022,01,01,15,28,0.20
2022,01,01,15,29,0.20
2022,01,01,15,30,0.20
2022,01,01,15,31,0.10
2022,01,01,15,32,0.10
2022,01,01,15,33,0.10
2022,01,01,15,34,0.10
2022,01,01,15,35,0.20
2022,01,01,15,36,0.20
2022,01,01,15,37,0.20
2022,01,01,15,38,0.10
2022,01,01,15,39,0.10
2022,01,01,15,40,0.10
2022,01,01,15,41,0.10
2022,01,01,15,42,0.10
2022,01,01,15,43,0.10
2022,01,01,15,44,0.10
2022,01,01,15,45,0.10
2022,01,01,15,46,0.10
2022,01,01,15,47,0.00
2022,01,01,15,48,0.00
2022,01,01,15,49,0.00
2022,01,01,15,50,0.00
2022,01,01,15,51,0.00
2022,01,01,15,52,0.00
2022,01,01,15,53,0.00
2022,01,01,15,54,0.00
2022,01,01,15,55,0.00
2022,01,01,15,56,0.10
2022,01,01,15,57,0.10
2022,01,01,15,58,0.10
2022,01,01,15,59,0.10
2022,01,01,16,00,0.10
2022,01,01,16,01,0.10
2022,01,01,16,02,0.10
2022,01,01,16,03,0.10
2022,01,01,16,04,0.10
2022,01,01,16,05,0.10
2022,01,01,16,06,0.10
2022,01,01,16,07,0.00
2022,01,01,16,08,0.00
2022,01,01,16,09,0.00
2022,01,01,16,10,0.00
2022,01,01,16,11,0.00
2022,01,01,16,12,0.00
2022,01,01,16,13,0.00
2022,01,01,16,14,0.00
2022,01,01,16,15,-0.10
2022,01,01,16,16,-0.10
2022,01,01,16,17,-0.10
2022,01,01,16,18,-0.10
2022,01,01,16,19,-0.10
2022,01,01,16,20,-0.10
2022,01,01,16,21,-0.10
2022,01,01,16,22,-0.10
2022,01,01,16,23,-0.10
2022,01,01,16,24,-0.10
2022,01,01,16,25,-0.20
2022,01,01,16,26,-0.20
2022,01,01,16,27,-0.20
2022,01,01,16,28,-0.20
2022,01,01,16,29,-0.20
2022,01,01,16,30,-0.20
2022,01,01,16,31,-0.20
2022,01,01,16,32,-0.20
2022,01,01,16,33,-0.20
2022,01,01,16,34,-0.20
2022,01,01,16,35,-0.20
2022,01,01,16,36,-0.20
2022,01,01,16,37,-0.20
2022,01,01,16,38,-0.30
2022,01,01,16,39,-0.30
2022,01,01,16,40,-0.30
2022,01,01,16,41,-0.30
2022,01,01,16,42,-0.30
2022,01,01,16,43,-0.30
2022,01,01,16,44,-0.30
2022,01,01,16,45,-0.30
2022,01,01,16,46,-0.30
2022,01,01,16,47,-0.30
2022,01,01,16,48,-0.30
2022,01,01,16,49,-0.30
2022,01,01,16,50,-0.30
2022,01,01,16,51,-0.30
2022,01,01,16,52,-0.30
2022,01,01,16,53,-0.30
2022,01,01,16,54,-0.30
2022,01,01,16,55,-0.30
2022,01,01,16,56,-0.30
2022,01,01,16,57,-0.30
2022,01,01,16,58,-0.30
2022,01,01,16,59,-0.30
2022,01,01,17,00,-0.30
2022,01,01,17,01,-0.40
2022,01,01,17,02,-0.40
2022,01,01,17,03,-0.40
2022,01,01,17,04,-0.40
2022,01,01,17,05,-0.50
2022,01,01,17,06,-0.50
2022,01,01,17,07,-0.60
2022,01,01,17,08,-0.60
2022,01,01,17,09,-0.60
2022,01,01,17,10,-0.60
2022,01,01,17,11,-0.70
2022,01,01,17,12,-0.70
2022,01,01,17,13,-0.70
2022,01,01,17,14,-0.70
2022,01,01,17,15,-0.80
2022,01,01,17,16,-0.80
2022,01,01,17,17,-0.80
2022,01,01,17,18,-0.80
2022,01,01,17,19,-0.80
2022,01,01,17,20,-0.80
2022,01,01,17,21,-0.80
2022,01,01,17,22,-0.80
2022,01,01,17,23,-0.90
2022,01,01,17,24,-0.90
2022,01,01,17,25,-0.90
2022,01,01,17,26,-0.90
2022,01,01,17,27,-0.90
2022,01,01,17,28,-1.00
2022,01,01,17,29,-1.00
2022,01,01,17,30,-1.00
2022,01,01,17,31,-1.00
2022,01,01,17,32,-1.00
2022,01,01,17,33,-1.10
2022,01,01,17,34,-1.10
2022,01,01,17,35,-1.10
2022,01,01,17,36,-1.10
2022,01,01,17,37,-1.10
2022,01,01,17,38,-1.10
2022,01,01,17,39,-1.10
2022,01,01,17,40,-1.20
2022,01,01,17,41,-1.20
2022,01,01,17,42,-1.20
2022,01,01,17,43,-1.20
2022,01,01,17,44,-1.30
2022,01,01,17,45,-1.30
2022,01,01,17,46,-1.30
2022,01,01,17,47,-1.30
2022,01,01,17,48,-1.30
2022,01,01,17,49,-1.40
2022,01,01,17,50,-1.40
2022,01,01,17,51,-1.40
2022,01,01,17,52,-1.40
2022,01,01,17,53,-1.50
2022,01,01,17,54,-1.50
2022,01,01,17,55,-1.50
2022,01,01,17,56,-1.50
2022,01,01,17,57,-1.60
2022,01,01,17,58,-1.60
2022,01,01,17,59,-1.60
2022,01,01,18,00,-1.60
2022,01,01,18,01,-1.60
2022,01,01,18,02,-1.60
2022,01,01,18,03,-1.70
2022,01,01,18,04,-1.70
2022,01,01,18,05,-1.70
2022,01,01,18,06,-1.70
2022,01,01,18,07,-1.70
2022,01,01,18,08,-1.70
2022,01,01,18,09,-1.70
2022,01,01,18,10,-1.80
2022,01,01,18,11,-1.80
2022,01,01,18,12,-1.80
2022,01,01,18,13,-1.80
2022,01,01,18,14,-1.80
2022,01,01,18,15,-1.80
2022,01,01,18,16,-1.80
2022,01,01,18,17,-1.80
2022,01,01,18,18,-1.80
2022,01,01,18,19,-1.80
2022,01,01,18,20,-1.80
2022,01,01,18,21,-1.90
2022,01,01,18,22,-1.90
2022,01,01,18,23,-1.90
2022,01,01,18,24,-1.90
2022,01,01,18,25,-1.90
2022,01,01,18,26,-1.90
2022,01,01,18,27,-1.90
2022,01,01,18,28,-1.90
2022,01,01,18,29,-1.90
2022,01,01,18,30,-1.90
2022,01,01,18,31,-2.00
2022,01,01,18,32,-2.00
2022,01,01,18,33,-2.00
2022,01,01,18,34,-2.00
2022,01,01,18,35,-2.00
2022,01,01,18,36,-2.00
2022,01,01,18,37,-2.00
2022,01,01,18,38,-2.00
2022,01,01,18,39,-2.10
2022,01,01,18,40,-2.10
2022,01,01,18,41,-2.10
2022,01,01,18,42,-2.10
2022,01,01,18,43,-2.10
2022,01,01,18,44,-2.10
2022,01,01,18,45,-2.10
2022,01,01,18,46,-2.10
2022,01,01,18,47,-2.10
2022,01,01,18,48,-2.10
2022,01,01,18,49,-2.10
2022,01,01,18,50,-2.10
2022,01,01,18,51,-2.10
2022,01,01,18,52,-2.10
2022,01,01,18,53,-2.10
2022,01,01,18,54,-2.10
2022,01,01,18,55,-2.10
2022,01,01,18,56,-2.20
2022,01,01,18,57,-2.20
2022,01,01,18,58,-2.20
2022,01,01,18,59,-2.20
2022,01,01,19,00,-2.20
2022,01,01,19,01,-2.20
2022,01,01,19,02,-2.20
2022,01,01,19,03,-2.20
2022,01,01,19,04,-2.20
2022,01,01,19,05,-2.20
2022,01,01,19,06,-2.20
2022,01,01,19,07,-2.20
2022,01,01,19,08,-2.20
2022,01,01,19,09,-2.20
2022,01,01,19,10,-2.20
2022,01,01,19,11,-2.20
2022,01,01,19,12,-2.20
2022,01,01,19,13,-2.20
2022,01,01,19,14,-2.20
2022,01,01,19,15,-2.20
2022,01,01,19,16,-2.20
2022,01,01,19,17,-2.20
2022,01,01,19,18,-2.20
2022,01,01,19,19,-2.20
2022,01,01,19,20,-2.20
2022,01,01,19,21,-2.20
2022,01,01,19,22,-2.20
2022,01,01,19,23,-2.20
2022,01,01,19,24,-2.20
2022,01,01,19,25,-2.20
2022,01,01,19,26,-2.20
2022,01,01,19,27,-2.20
2022,01,01,19,28,-2.20
2022,01,01,19,29,-2.20
2022,01,01,19,30,-2.30
2022,01,01,19,31,-2.30
2022,01,01,19,32,-2.30
2022,01,01,19,33,-2.30
2022,01,01,19,34,-2.30
2022,01,01,19,35,-2.30
2022,01,01,19,36,-2.30
2022,01,01,19,37,-2.30
2022,01,01,19,38,-2.30
2022,01,01,19,39,-2.30
2022,01,01,19,40,-2.30
2022,01,01,19,41,-2.30
2022,01,01,19,42,-2.30
2022,01,01,19,43,-2.30
2022,01,01,19,44,-2.30
2022,01,01,19,45,-2.30
2022,01,01,19,46,-2.30
2022,01,01,19,47,-2.30
2022,01,01,19,48,-2.30
2022,01,01,19,49,-2.30
2022,01,01,19,50,-2.30
2022,01,01,19,51,-2.30
2022,01,01,19,52,-2.20
2022,01,01,19,53,-2.20
2022,01,01,19,54,-2.20
2022,01,01,19,55,-2.20
2022,01,01,19,56,-2.20
2022,01,01,19,57,-2.20
2022,01,01,19,58,-2.20
2022,01,01,19,59,-2.20
2022,01,01,20,00,-2.20
2022,01,01,20,01,-2.20
2022,01,01,20,02,-2.20
2022,01,01,20,03,-2.20
2022,01,01,20,04,-2.20
2022,01,01,20,05,-2.20
2022,01,01,20,06,-2.20
2022,01,01,20,07,-2.20
2022,01,01,20,08,-2.20
2022,01,01,20,09,-2.20
2022,01,01,20,10,-2.20
2022,01,01,20,11,-2.20
2022,01,01,20,12,-2.20
2022,01,01,20,13,-2.20
2022,01,01,20,14,-2.20
2022,01,01,20,15,-2.30
2022,01,01,20,16,-2.30
2022,01,01,20,17,-2.30
2022,01,01,20,18,-2.30
2022,01,01,20,19,-2.30
2022,01,01,20,20,-2.30
2022,01,01,20,21,-2.30
2022,01,01,20,22,-2.20
2022,01,01,20,23,-2.20
2022,01,01,20,24,-2.20
2022,01,01,20,25,-2.20
2022,01,01,20,26,-2.20
2022,01,01,20,27,-2.10
2022,01,01,20,28,-2.10
2022,01,01,20,29,-2.10
2022,01,01,20,30,-2.10
2022,01,01,20,31,-2.10
2022,01,01,20,32,-2.10
2022,01,01,20,33,-2.10
2022,01,01,20,34,-2.10
2022,01,01,20,35,-2.10
2022,01,01,20,36,-2.10
2022,01,01,20,37,-2.20
2022,01,01,20,38,-2.20
2022,01,01,20,39,-2.20
2022,01,01,20,40,-2.20
2022,01,01,20,41,-2.20
2022,01,01,20,42,-2.20
2022,01,01,20,43,-2.20
2022,01,01,20,44,-2.20
2022,01,01,20,45,-2.10
2022,01,01,20,46,-2.10
2022,01,01,20,47,-2.10
2022,01,01,20,48,-2.10
2022,01,01,20,49,-2.10
2022,01,01,20,50,-2.10
2022,01,01,20,51,-2.10
2022,01,01,20,52,-2.10
2022,01,01,20,53,-2.10
2022,01,01,20,54,-2.10
2022,01,01,20,55,-2.00
2022,01,01,20,56,-2.00
2022,01,01,20,57,-2.00
2022,01,01,20,58,-2.00
2022,01,01,20,59,-2.00
2022,01,01,21,00,-1.90
2022,01,01,21,01,-1.90
2022,01,01,21,02,-1.90
2022,01,01,21,03,-1.90
2022,01,01,21,04,-1.90
2022,01,01,21,05,-2.00
2022,01,01,21,06,-2.00
2022,01,01,21,07,-2.00
2022,01,01,21,08,-2.00
2022,01,01,21,09,-2.00
2022,01,01,21,10,-2.00
2022,01,01,21,11,-2.00
2022,01,01,21,12,-2.00
2022,01,01,21,13,-2.00
2022,01,01,21,14,-2.00
2022,01,01,21,15,-2.00
2022,01,01,21,16,-2.00
2022,01,01,21,17,-2.00
2022,01,01,21,18,-2.00
2022,01,01,21,19,-2.00
2022,01,01,21,20,-2.00
2022,01,01,21,21,-2.00
2022,01,01,21,22,-2.00
2022,01,01,21,23,-2.00
2022,01,01,21,24,-1.90
2022,01,01,21,25,-1.90
2022,01,01,21,26,-1.90
2022,01,01,21,27,-1.90
2022,01,01,21,28,-1.90
2022,01,01,21,29,-1.90
2022,01,01,21,30,-1.90
2022,01,01,21,31,-1.90
2022,01,01,21,32,-1.90
2022,01,01,21,33,-1.90
2022,01,01,21,34,-1.90
2022,01,01,21,35,-1.90
2022,01,01,21,36,-1.90
2022,01,01,21,37,-1.90
2022,01,01,21,38,-1.90
2022,01,01,21,39,-1.90
2022,01,01,21,40,-1.90
2022,01,01,21,41,-1.90
2022,01,01,21,42,-1.90
2022,01,01,21,43,-1.90
2022,01,01,21,44,-1.90
2022,01,01,21,45,-1.90
2022,01,01,21,46,-1.90
2022,01,01,21,47,-1.90
2022,01,01,21,48,-1.90
2022,01,01,21,49,-1.90
2022,01,01,21,50,-1.90
2022,01,01,21,51,-1.90
2022,01,01,21,52,-1.90
2022,01,01,21,53,-1.90
2022,01,01,21,54,-1.90
2022,01,01,21,55,-1.90
2022,01,01,21,56,-1.90
2022,01,01,21,57,-1.90
2022,01,01,21,58,-1.80
2022,01,01,21,59,-1.80
2022,01,01,22,00,-1.80
2022,01,01,22,01,-1.80
2022,01,01,22,02,-1.80
2022,01,01,22,03,-1.80
2022,01,01,22,04,-1.80
2022,01,01,22,05,-1.80
2022,01,01,22,06,-1.80
2022,01,01,22,07,-1.80
2022,01,01,22,08,-1.80
2022,01,01,22,09,-1.80
2022,01,01,22,10,-1.80
2022,01,01,22,11,-1.80
2022,01,01,22,12,-1.80
2022,01,01,22,13,-1.80
2022,01,01,22,14,-1.80
2022,01,01,22,15,-1.80
2022,01,01,22,16,-1.80
2022,01,01,22,17,-1.70
2022,01,01,22,18,-1.70
2022,01,01,22,19,-1.70
2022,01,01,22,20,-1.70
2022,01,01,22,21,-1.70
2022,01,01,22,22,-1.70
2022,01,01,22,23,-1.70
2022,01,01,22,24,-1.70
2022,01,01,22,25,-1.70
2022,01,01,22,26,-1.70
2022,01,01,22,27,-1.70
2022,01,01,22,28,-1.70
2022,01,01,22,29,-1.70
2022,01,01,22,30,-1.70
2022,01,01,22,31,-1.70
2022,01,01,22,32,-1.70
2022,01,01,22,33,-1.70
2022,01,01,22,34,-1.70
2022,01,01,22,35,-1.70
2022,01,01,22,36,-1.70
2022,01,01,22,37,-1.70
2022,01,01,22,38,-1.70
2022,01,01,22,39,-1.70
2022,01,01,22,40,-1.70
2022,01,01,22,41,-1.70
2022,01,01,22,42,-1.70
2022,01,01,22,43,-1.70
2022,01,01,22,44,-1.70
2022,01,01,22,45,-1.70
2022,01,01,22,46,-1.60
2022,01,01,22,47,-1.60
2022,01,01,22,48,-1.60
2022,01,01,22,49,-1.60
2022,01,01,22,50,-1.60
2022,01,01,22,51,-1.60
2022,01,01,22,52,-1.60
2022,01,01,22,53,-1.60
2022,01,01,22,54,-1.60
2022,01,01,22,55,-1.60
2022,01,01,22,56,-1.60
2022,01,01,22,57,-1.60
2022,01,01,22,58,-1.60
2022,01,01,22,59,-1.60
2022,01,01,23,00,-1.60
2022,01,01,23,01,-1.50
2022,01,01,23,02,-1.50
2022,01,01,23,03,-1.50
2022,01,01,23,04,-1.50
2022,01,01,23,05,-1.50
2022,01,01,23,06,-1.40
2022,01,01,23,07,-1.40
2022,01,01,23,08,-1.50
2022,01,01,23,09,-1.50
2022,01,01,23,10,-1.50
2022,01,01,23,11,-1.50
2022,01,01,23,12,-1.50
2022,01,01,23,13,-1.50
2022,01,01,23,14,-1.50
2022,01,01,23,15,-1.50
2022,01,01,23,16,-1.50
2022,01,01,23,17,-1.50
2022,01,01,23,18,-1.50
2022,01,01,23,19,-1.50
2022,01,01,23,20,-1.50
2022,01,01,23,21,-1.50
2022,01,01,23,22,-1.50
2022,01,01,23,23,-1.50
2022,01,01,23,24,-1.50
2022,01,01,23,25,-1.50
2022,01,01,23,26,-1.50
2022,01,01,23,27,-1.50
2022,01,01,23,28,-1.40
2022,01,01,23,29,-1.40
2022,01,01,23,30,-1.40
2022,01,01,23,31,-1.40
2022,01,01,23,32,-1.40
2022,01,01,23,33,-1.40
2022,01,01,23,34,-1.40
2022,01,01,23,35,-1.40
2022,01,01,23,36,-1.40
2022,01,01,23,37,-1.40
2022,01,01,23,38,-1.30
2022,01,01,23,39,-1.30
2022,01,01,23,40,-1.30
2022,01,01,23,41,-1.30
2022,01,01,23,42,-1.30
2022,01,01,23,43,-1.30
2022,01,01,23,44,-1.30
2022,01,01,23,45,-1.30
2022,01,01,23,46,-1.40
2022,01,01,23,47,-1.40
2022,01,01,23,48,-1.30
2022,01,01,23,49,-1.30
2022,01,01,23,50,-1.30
2022,01,01,23,51,-1.30
2022,01,01,23,52,-1.30
2022,01,01,23,53,-1.30
2022,01,01,23,54,-1.30
2022,01,01,23,55,-1.30
2022,01,01,23,56,-1.30
2022,01,01,23,57,-1.30
2022,01,01,23,58,-1.30
2022,01,01,23,59,-1.30
